TimeEDT,TemperatureF,Dew PointF,Humidity,Sea Level PressureIn,VisibilityMPH,Wind Direction,Wind SpeedMPH,Gust SpeedMPH,PrecipitationIn,Events,Conditions,WindDirDegrees,DateUTC
12:15 AM,61.7,56.3,82,29.82,10.0,NNE,4.6,-,N/A,,Clear,20,2013-06-30 04:15:00
12:35 AM,61.7,55.9,81,29.82,10.0,NNE,4.6,-,N/A,,Scattered Clouds,20,2013-06-30 04:35:00
12:55 AM,61.7,56.1,82,29.82,10.0,North,4.6,-,N/A,,Mostly Cloudy,10,2013-06-30 04:55:00
1:14 AM,60.3,54.9,82,29.83,10.0,North,4.6,-,N/A,,Scattered Clouds,10,2013-06-30 05:14:00
1:35 AM,60.3,54.9,82,29.84,10.0,North,3.5,-,N/A,,Mostly Cloudy,10,2013-06-30 05:35:00
1:55 AM,60.3,54.9,82,29.84,10.0,North,4.6,-,N/A,,Scattered Clouds,10,2013-06-30 05:55:00
2:15 AM,57.7,53.2,85,29.84,10.0,Calm,Calm,-,N/A,,Scattered Clouds,0,2013-06-30 06:15:00
2:35 AM,57.7,53.2,85,29.84,10.0,Calm,Calm,-,N/A,,Clear,0,2013-06-30 06:35:00
2:55 AM,57.7,53.6,86,29.84,10.0,Calm,Calm,-,N/A,,Clear,0,2013-06-30 06:55:00
3:15 AM,57.7,53.6,86,29.84,10.0,Calm,Calm,-,N/A,,Clear,0,2013-06-30 07:15:00
3:35 AM,57.7,53.6,86,29.84,10.0,Calm,Calm,-,N/A,,Mostly Cloudy,0,2013-06-30 07:35:00
3:55 AM,57.7,54.1,88,29.84,10.0,Calm,Calm,-,N/A,,Scattered Clouds,0,2013-06-30 07:55:00
4:15 AM,57.6,54.0,88,29.84,10.0,Calm,Calm,-,N/A,,Clear,0,2013-06-30 08:15:00
4:35 AM,55.8,52.2,88,29.84,10.0,Calm,Calm,-,N/A,,Clear,0,2013-06-30 08:35:00
4:55 AM,55.6,52.0,88,29.84,10.0,Calm,Calm,-,N/A,,Clear,0,2013-06-30 08:55:00
5:15 AM,55.4,51.8,88,29.85,10.0,Calm,Calm,-,N/A,,Clear,0,2013-06-30 09:15:00
5:35 AM,55.4,52.0,88,29.85,10.0,Calm,Calm,-,N/A,,Clear,0,2013-06-30 09:35:00
5:55 AM,55.4,52.2,89,29.86,7.0,Calm,Calm,-,N/A,,Scattered Clouds,0,2013-06-30 09:55:00
6:15 AM,55.4,52.2,89,29.87,7.0,Calm,Calm,-,N/A,,Overcast,0,2013-06-30 10:15:00
6:35 AM,55.4,52.2,89,29.87,10.0,Calm,Calm,-,N/A,,Mostly Cloudy,0,2013-06-30 10:35:00
6:55 AM,57.7,53.6,86,29.87,10.0,Calm,Calm,-,N/A,,Mostly Cloudy,0,2013-06-30 10:55:00
7:15 AM,57.7,52.9,84,29.88,10.0,NNE,4.6,-,N/A,,Scattered Clouds,20,2013-06-30 11:15:00
7:35 AM,59.0,53.8,83,29.89,10.0,NNE,3.5,-,N/A,,Clear,30,2013-06-30 11:35:00
7:55 AM,60.3,54.5,81,29.89,10.0,NE,4.6,-,N/A,,Scattered Clouds,40,2013-06-30 11:55:00
8:15 AM,60.6,53.8,78,29.89,10.0,NE,4.6,-,N/A,,Clear,40,2013-06-30 12:15:00
8:35 AM,63.5,54.3,72,29.90,10.0,NNE,6.9,-,N/A,,Mostly Cloudy,30,2013-06-30 12:35:00
8:55 AM,65.3,54.3,68,29.90,10.0,NE,8.1,-,N/A,,Overcast,40,2013-06-30 12:55:00
9:15 AM,68.0,55.6,64,29.91,10.0,NE,6.9,-,N/A,,Scattered Clouds,50,2013-06-30 13:15:00
9:35 AM,69.3,56.5,64,29.92,10.0,NE,6.9,-,N/A,,Clear,40,2013-06-30 13:35:00
9:55 AM,70.3,57.7,64,29.92,10.0,NE,4.6,-,N/A,,Clear,40,2013-06-30 13:55:00
10:15 AM,70.3,55.8,60,29.92,10.0,NE,5.8,-,N/A,,Clear,40,2013-06-30 14:15:00
10:35 AM,72.9,55.9,55,29.92,10.0,NNE,5.8,-,N/A,,Clear,30,2013-06-30 14:35:00
10:55 AM,75.4,56.7,52,29.92,10.0,NNE,5.8,-,N/A,,Clear,20,2013-06-30 14:55:00
11:15 AM,75.4,55.8,50,29.93,10.0,NNE,6.9,-,N/A,,Clear,30,2013-06-30 15:15:00
11:35 AM,75.4,56.1,51,29.93,10.0,NNE,5.8,-,N/A,,Clear,20,2013-06-30 15:35:00
11:55 AM,75.4,53.6,47,29.93,10.0,NE,6.9,-,N/A,,Clear,40,2013-06-30 15:55:00
12:15 PM,77.7,59.2,53,29.93,10.0,NNW,4.6,-,N/A,,Clear,330,2013-06-30 16:15:00
12:35 PM,77.9,59.5,53,29.93,10.0,North,10.4,-,N/A,,Clear,360,2013-06-30 16:35:00
12:55 PM,76.1,57.0,51,29.94,10.0,North,9.2,-,N/A,,Clear,350,2013-06-30 16:55:00
1:15 PM,77.9,56.5,48,29.94,10.0,NNW,11.5,17.3,N/A,,Clear,340,2013-06-30 17:15:00
1:35 PM,77.9,55.9,47,29.94,10.0,NNW,10.4,19.6,N/A,,Clear,340,2013-06-30 17:35:00
1:55 PM,75.4,53.4,46,29.94,10.0,North,13.8,-,N/A,,Clear,350,2013-06-30 17:55:00
2:15 PM,75.4,53.4,46,29.94,10.0,North,12.7,-,N/A,,Clear,360,2013-06-30 18:15:00
2:35 PM,77.0,50.2,39,29.95,10.0,North,15.0,23.0,N/A,,Clear,350,2013-06-30 18:35:00
2:55 PM,77.2,45.9,33,29.94,10.0,North,15.0,23.0,N/A,,Clear,360,2013-06-30 18:55:00
3:15 PM,76.6,43.0,30,29.95,10.0,North,17.3,23.0,N/A,,Clear,360,2013-06-30 19:15:00
3:35 PM,76.5,41.0,28,29.95,10.0,North,17.3,25.3,N/A,,Clear,360,2013-06-30 19:35:00
3:55 PM,75.4,39.9,28,29.95,10.0,North,17.3,24.2,N/A,,Clear,350,2013-06-30 19:55:00
4:15 PM,75.4,40.5,28,29.95,10.0,North,13.8,21.9,N/A,,Clear,350,2013-06-30 20:15:00
4:35 PM,75.4,42.1,30,29.95,10.0,North,17.3,-,N/A,,Clear,360,2013-06-30 20:35:00
4:55 PM,75.4,43.2,32,29.95,10.0,North,16.1,23.0,N/A,,Clear,350,2013-06-30 20:55:00
5:15 PM,75.4,43.5,32,29.95,10.0,North,15.0,18.4,N/A,,Clear,350,2013-06-30 21:15:00
5:35 PM,75.4,42.3,30,29.96,10.0,North,15.0,-,N/A,,Clear,360,2013-06-30 21:35:00
5:55 PM,75.4,42.8,31,29.96,10.0,North,13.8,20.7,N/A,,Clear,360,2013-06-30 21:55:00
6:15 PM,75.4,44.4,33,29.96,10.0,North,10.4,18.4,N/A,,Clear,10,2013-06-30 22:15:00
6:35 PM,75.4,45.0,34,29.97,10.0,North,11.5,17.3,N/A,,Clear,360,2013-06-30 22:35:00
6:55 PM,75.4,46.0,35,29.97,10.0,North,8.1,-,N/A,,Clear,360,2013-06-30 22:55:00
7:15 PM,72.9,46.0,38,29.98,10.0,North,10.4,-,N/A,,Clear,360,2013-06-30 23:15:00
7:35 PM,72.5,46.6,40,29.98,10.0,North,11.5,-,N/A,,Clear,10,2013-06-30 23:35:00
7:55 PM,70.9,46.2,41,29.99,10.0,North,9.2,-,N/A,,Clear,360,2013-06-30 23:55:00
8:15 PM,70.3,46.4,42,29.99,10.0,North,9.2,-,N/A,,Clear,360,2013-07-01 00:15:00
8:35 PM,70.3,48.2,45,29.99,10.0,North,5.8,-,N/A,,Clear,10,2013-07-01 00:35:00
8:55 PM,70.3,49.1,47,29.99,10.0,North,4.6,-,N/A,,Clear,10,2013-07-01 00:55:00
9:15 PM,68.0,48.0,49,30.00,10.0,NNE,4.6,-,N/A,,Clear,20,2013-07-01 01:15:00
9:35 PM,68.0,47.3,47,30.00,10.0,NNE,4.6,-,N/A,,Clear,20,2013-07-01 01:35:00
9:55 PM,65.3,46.2,50,30.01,10.0,North,5.8,-,N/A,,Clear,10,2013-07-01 01:55:00
10:15 PM,63.5,45.9,53,30.01,10.0,NNE,4.6,-,N/A,,Clear,20,2013-07-01 02:15:00
10:35 PM,63.0,45.7,53,30.02,10.0,NNE,4.6,-,N/A,,Clear,20,2013-07-01 02:35:00
10:55 PM,62.8,46.0,54,30.02,10.0,NNE,3.5,-,N/A,,Clear,30,2013-07-01 02:55:00
11:15 PM,62.2,45.9,55,-9999,10.0,North,4.6,-,N/A,,Clear,10,2013-07-01 03:15:00
11:35 PM,61.3,46.0,57,30.02,10.0,North,4.6,-,N/A,,Clear,10,2013-07-01 03:35:00
11:55 PM,60.3,45.5,58,30.03,10.0,NNE,3.5,-,N/A,,Clear,20,2013-07-01 03:55:00